Home > Time Zones > World Clock > Weather > Italy > Turin > Past weeks

Flag for Italy Weather past 2 weeks in Turin, Italy

Now
77 °F

Clear.


Feels Like: 78 °F
Forecast: 70 / 94 °F
Wind: 9 mph from East

Location: Torino / Bric Della Croce

Current Time: Jul 6, 2015 at 1:41:35 AM

Latest Report: Jul 6, 2015 at 12:55 AM


Visibility: 10 mi

Pressure: 30.18 "Hg

Humidity: 83%

Dew point: 72 °F

Location of TurinLocation

Historic Weather in Turin — Graph

°F

Turin temperature yesterday

Maximum temperature yesterday: 82 °F (at 4:55 PM)
Minimum temperature yesterday: 73 °F (at 5:55 AM)
Average temperature yesterday: 77 °F

Past Weeks' High & Low Weather Summary

 TemperatureHumidityPressure
High82 °F (Jul 1, 4:55 PM)100% (Jun 21, 2:55 AM)30.39 "Hg (Jun 21, 2:55 AM)
Low54 °F (Jun 24, 6:55 AM)31% (Jun 23, 7:55 PM)29.77 "Hg (Jun 23, 5:55 AM)
Average71 °F71%30.14 "Hg
* Reported Jun 20 11:55 PM — Jul 5 11:55 PM, Turin, Weather by CustomWeather, © 2015

Note: Actual official high and low records may vary slightly from our data, if they occured in-between our weather recording intervals... More about our weather records

Advertising

Turin weather history for previous 24 hours

 ConditionsComfort  
Time TempWeatherWind HumidityBarometerVisibility
11:55 PM
Sun, Jul 5
77 °FPassing clouds.8 mph83%30.18 "HgN/A
10:55 PM79 °FPassing clouds.3 mph79%30.18 "HgN/A
9:55 PM79 °FPassing clouds.No wind74%30.15 "HgN/A
8:55 PM79 °FSunny.5 mph79%30.15 "Hg10 mi
7:55 PM81 °FPassing clouds.2 mph79%30.15 "HgN/A
6:55 PM82 °FScattered clouds.No wind66%30.15 "HgN/A
5:55 PM82 °FPassing clouds.No wind66%30.15 "HgN/A
4:55 PM82 °FPassing clouds.No wind66%30.15 "HgN/A
3:55 PM81 °FPassing clouds.3 mph66%30.15 "HgN/A
2:55 PM81 °FScattered clouds.5 mph74%30.18 "HgN/A
1:55 PM77 °FPartly sunny.No wind89%30.21 "HgN/A
12:55 PM75 °FPartly sunny.No wind94%30.21 "HgN/A
11:55 AM75 °FPartly sunny.No wind94%30.21 "HgN/A
10:55 AM75 °FPartly sunny.No wind94%30.21 "HgN/A
9:55 AM75 °FPassing clouds.No wind94%30.21 "HgN/A
8:55 AM73 °FSunny.No wind100%30.21 "Hg10 mi
7:55 AM73 °FPassing clouds.No wind100%30.21 "HgN/A
6:55 AM73 °FPartly sunny.3 mph100%30.21 "HgN/A
5:55 AM73 °FPassing clouds.No wind100%30.21 "HgN/A
4:55 AM75 °FPassing clouds.3 mph78%30.21 "HgN/A
3:55 AM75 °FClear.5 mph83%30.21 "Hg10 mi
2:55 AM75 °FClear.5 mph83%30.21 "Hg10 mi
1:55 AM75 °FClear.6 mph83%30.21 "Hg10 mi
Weather by CustomWeather, © 2015

See weather overviewHow to use our weather pages